Weather in Asanovo

Russia / Chuvash Republic     55°18′50″N   47°24′13″E
temp.,
°C
wind,
m/s
gust,
m/s
humid.,
%
clouds,
%
prec.,
mm/h
press.,
hPa
HPBL,
m
9 march, tue
tue900:00−12wnw459477 0.1 100489
03:00−15w349638 0.1 100642
06:00−17wsw34971 0.0 100858
09:00−14w359429 0.0 1009236
12:00−10wnw348892 0.0 1010484
15:00−10nnw459096 0.1 1010502
18:00−12nw359593 0.1 1011132
21:00−13nnw489594 0.3 1012261
10 march, wed
wed1000:00−17nnw599784 0.0 1012202
03:00−17nnw5109591 0.1 1013315
06:00−20nnw61096100 0.1 1015311
09:00−22nnw61095100 0.1 1017330
12:00−20nnw6994100 0.0 1019417
15:00−18nnw61090100 0.0 1020589
18:00−21nw4109492 0.0 1022196
21:00−23nnw479648 0.0 1024124
11 march, thu
thu1100:00−24nw45970 0.0 102483
03:00−23wnw479937 0.0 1026134
06:00−24wnw489999 0.0 1026150
09:00−20wnw599492 0.0 1026268
12:00−15nw699299 0.1 1026460
15:00−13nw599299 0.1 1027489
18:00−13wnw4994100 0.0 1027230
21:00−14nw489792 0.1 1029137
12 march, fri
fri1200:00−16nw479728 0.0 103089
03:00−18wnw349614 0.0 103153
06:00−19w34960 0.0 103360
09:00−15w47920 0.0 1034253
12:00−10w47840 0.0 1034408
15:00−8w58790 0.0 1033561
18:00−13wsw34900 0.0 103344
21:00−15wsw45900 0.0 103585
13 march, sat
sat1300:00−16wsw47881 0.0 1035104
03:00−17sw34880 0.0 103571
06:00−18sw34870 0.0 103574
09:00−13sw48870 0.0 1035269
12:00−8ssw59800 0.0 1034531
15:00−6ssw510790 0.0 1032863
18:00−10ssw47860 0.0 103197
21:00−12ssw5138533 0.0 1030380